This is the latest recevied weather packets stored in our database for station/object E24MSQ-13. If no packets are shown the sender has not sent any weather packets the latest 10 day(s).
| Time | Temp. | Humidity | Pressure | Rain* | Wind** | Luminosity | Snow |
|---|---|---|---|---|---|---|---|
| 1778225620 | 38.33° C | 49% | 1006 hPa | - | - | 0 W/m² | - |
| 1778224695 | 37.78° C | 49% | 1006 hPa | - | - | 0 W/m² | - |
| 1778223771 | 37.78° C | 50% | 1007 hPa | - | - | 0 W/m² | - |
| 1778222847 | 37.78° C | 51% | 1007 hPa | - | - | 0 W/m² | - |
| 1778221922 | 37.22° C | 52% | 1007 hPa | - | - | 0 W/m² | - |
| 1778220998 | 37.22° C | 50% | 1008 hPa | - | - | 0 W/m² | - |
| 1778220073 | 36.67° C | 49% | 1008 hPa | - | - | 0 W/m² | - |
| 1778219149 | 37.22° C | 48% | 1008 hPa | - | - | 0 W/m² | - |
| 1778218224 | 36.67° C | 48% | 1009 hPa | - | - | 0 W/m² | - |
| 1778217300 | 36.11° C | 51% | 1009 hPa | - | - | 0 W/m² | - |
| 1778216376 | 36.11° C | 52% | 1009 hPa | - | - | 0 W/m² | - |
| 1778215451 | 36.11° C | 54% | 1010 hPa | - | - | 0 W/m² | - |
| 1778214527 | 35.56° C | 58% | 1010 hPa | - | - | 0 W/m² | - |
| 1778213602 | 33.89° C | 59% | 1010 hPa | - | - | 0 W/m² | - |
| 1778212678 | 34.44° C | 60% | 1010 hPa | - | - | 0 W/m² | - |
| 1778211754 | 33.33° C | 62% | 1010 hPa | - | - | 0 W/m² | - |
| 1778210829 | 33.89° C | 63% | 1011 hPa | - | - | 0 W/m² | - |
| 1778209905 | 33.33° C | 67% | 1011 hPa | - | - | 0 W/m² | - |
| 1778208980 | 32.78° C | 68% | 1011 hPa | - | - | 0 W/m² | - |
| 1778208056 | 32.22° C | 71% | 1011 hPa | - | - | 0 W/m² | - |
| 1778207131 | 32.22° C | 71% | 1011 hPa | - | - | 0 W/m² | - |
| 1778206207 | 32.22° C | 72% | 1011 hPa | - | - | 0 W/m² | - |
| 1778205282 | 31.67° C | 74% | 1011 hPa | - | - | 0 W/m² | - |
| 1778204358 | 31.11° C | 75% | 1010 hPa | - | - | 0 W/m² | - |
| 1778203433 | 31.11° C | 76% | 1010 hPa | - | - | 0 W/m² | - |
* Rain since midnight (hover to see other rain measurements)
** Current wind speed in m/s (hover to see current wind gust speed)